Vorticity
8 4 21 18 -8 -1 54 5 6 5 5 5 6 6 5 5 5 4 3 3 4 6 6 7 8 10 9 8 6 6 2 9 1 4 -1 3 2 4 5 8 7 6 8 4 3
25 25 11 40 -4 31 47 7 6 5 5 5 6 5 4 5 3 5 4 4 9 9 10 10 8 8 6 6 6 4 6 9 5 3 4 3 4 2 -0 4 8 7 5 5 5
51 9 17 3 27 6 26 13 5 4 6 6 5 4 4 5 4 6 8 8 6 8 5 6 6 6 5 5 3 3 4 5 6 6 5 3 3 4 6 9 7 6 7 8 8
15 14 38 22 33 8 22 11 3 4 6 7 6 5 5 6 -0 8 7 7 7 6 7 5 5 5 6 5 4 6 6 6 6 6 6 7 8 6 5 6 4 7 7 7 6
28 6 25 51 16 50 1 4 2 2 3 5 7 6 8 8 4 8 7 7 7 7 6 5 7 7 5 10 7 7 7 7 6 6 5 5 5 4 8 6 9 8 8 8 9
33 -5 -2 33 29 11 17 14 -3 12 4 6 8 8 9 4 8 7 7 6 6 5 6 5 5 5 6 5 6 2 3 4 6 7 6 7 6 6 10 10 8 8 8 7 6
36 -10 -1 -31 55 -5 19 -2 2 0 3 7 8 8 10 9 16 7 8 6 6 6 6 6 6 7 7 8 12 9 8 4 7 8 2 3 16 7 14 17 13 11 11 9 9
40 26 -17 22 39 12 2 6 1 8 9 9 8 7 21 6 10 9 8 8 8 7 6 7 6 6 7 7 6 6 11 13 3 5 5 6 19 7 17 -5 8 10 7 8 9
8 30 28 44 -6 -3 7 8 6 7 9 9 7 8 1 4 6 7 8 7 7 7 7 6 6 5 7 6 9 10 3 6 20 3 6 5 9 -16 12 7 5 7 13 15 17
12 2 25 -5 -16 5 7 1 5 10 12 12 12 -9 10 7 5 5 6 6 6 6 6 6 7 7 9 13 7 8 11 3 1 -4 6 8 9 15 9 9 21 18 12 15 12
5 8 12 12 31 2 1 5 8 -0 12 30 24 21 10 8 8 10 10 9 9 8 10 9 19 13 10 6 2 4 5 6 8 10 11 -3 13 12 29 14 11 12 12 16 13
5 15 11 1 18 9 0 -3 22 8 9 6 7 10 8 10 10 11 12 17 18 21 13 9 8 8 7 6 6 7 8 10 24 -11 10 31 25 27 11 10 3 -1 4 21 20
6 6 7 -1 2 3 5 10 17 12 6 9 9 8 7 8 8 7 5 4 4 4 5 12 7 5 8 8 7 7 11 3 4 9 29 6 9 3 5 4 8 6 5 3 -3
4 3 12 9 4 6 3 -5 6 6 3 9 -5 5 1 -3 3 8 7 9 5 6 5 2 8 6 3 5 6 20 -1 6 4 22 11 2 -2 -8 -7 8 6 8 7 4 7
10 8 12 15 6 4 5 4 -9 -1 -3 7 11 12 15 22 -1 9 10 8 9 7 12 8 6 5 5 2 8 -3 11 8 26 9 22 4 24 5 -3 4 6 8 7 12 14
8 8 2 0 -4 -2 1 8 8 4 8 15 13 5 6 8 8 5 11 8 7 5 9 4 5 5 3 2 10 8 4 24 12 7 17 -1 8 17 -2 1 7 8 10 7 7
4 1 1 1 -7 3 7 17 3 24 -3 11 8 7 10 6 7 5 8 5 12 18 0 14 9 9 8 2 11 7 21 12 15 13 -5 4 25 -8 1 5 5 9 9 7 6
9 6 -1 -4 3 10 7 12 14 10 28 9 5 9 8 5 6 4 4 4 6 7 19 8 16 4 3 5 1 11 9 16 8 5 -10 13 16 2 14 3 3 9 8 8 7
11 11 11 12 11 16 19 5 17 -7 9 8 1 5 3 8 7 6 5 5 6 5 16 10 13 8 9 7 8 1 4 11 13 16 20 7 14 59 -6 3 -1 10 9 8 7
8 9 11 14 16 15 16 17 17 12 3 7 12 8 7 7 8 5 10 4 9 1 6 -0 18 12 6 5 17 12 5 8 6 9 14 13 16 1 -1 1 -5 12 6 8 7
6 5 8 10 6 5 9 12 4 3 6 8 8 8 6 6 5 12 7 6 6 -0 5 10 12 4 4 15 5 14 3 10 9 6 5 5 16 -4 6 -1 -3 4 5 3 6
9 5 5 5 5 3 3 5 9 5 7 7 6 7 12 5 13 14 4 2 -4 7 10 13 10 7 2 4 10 7 2 2 3 19 2 0 8 5 0 -3 -4 -0 5 6 15
5 7 5 7 7 7 5 6 3 7 4 1 5 9 4 5 13 6 13 1 14 5 -4 0 4 13 17 19 11 6 11 14 13 0 20 -10 -4 -10 -28 -1 8 2 15 8 6
14 8 7 5 6 6 6 11 11 7 10 12 6 6 8 10 8 0 -3 17 -0 8 9 15 14 -5 -26 -24 -15 -7 -10 -9 -7 12 -12 -55 -28 48 21 11 14 16 16 8 8
15 13 9 0 7 7 6 -0 2 3 7 7 6 6 4 9 3 19 10 1 1 11 6 14 4 6 10 6 2 6 10 11 7 9 -17 -30 -27 -3 21 14 11 7 10 11 13
8 14 12 8 11 12 11 8 7 8 6 7 7 4 5 9 5 -0 8 7 13 4 3 -1 12 -16 15 53 34 10 4 2 4 15 14 24 9 29 14 9 9 15 5 1 9
5 7 9 8 13 15 14 12 4 5 16 10 3 4 4 5 5 6 5 5 0 2 6 11 6 -11 36 -8 -12 66 59 56 42 23 25 12 -3 20 13 13 15 5 -5 14 17
Height
3013 3019 3025 3033 3036 3043 3051 3065 3075 3079 3084 3089 3097 3103 3108 3111 3115 3118 3123 3127 3129 3132 3134 3136 3139 3142 3144 3145 3147 3148 3151 3150 3151 3152 3152 3153 3154 3153 3154 3155 3154 3152 3151 3149 3148
3014 3019 3025 3031 3038 3038 3048 3064 3073 3079 3085 3093 3098 3103 3107 3112 3115 3118 3122 3124 3128 3131 3134 3136 3138 3141 3143 3144 3146 3147 3148 3149 3149 3150 3150 3151 3151 3151 3151 3153 3151 3149 3147 3145 3144
3014 3022 3030 3037 3039 3041 3052 3063 3072 3081 3088 3093 3097 3102 3108 3113 3118 3119 3122 3125 3128 3131 3134 3136 3139 3141 3142 3143 3144 3145 3146 3147 3147 3148 3148 3148 3148 3146 3147 3148 3146 3145 3144 3142 3140
3024 3028 3035 3040 3040 3044 3053 3062 3074 3084 3089 3094 3099 3104 3109 3113 3120 3120 3122 3125 3128 3131 3134 3135 3138 3140 3141 3142 3142 3144 3144 3145 3145 3145 3145 3145 3144 3142 3143 3142 3139 3138 3137 3137 3135
3029 3033 3039 3042 3044 3046 3056 3068 3077 3084 3091 3097 3101 3106 3110 3114 3117 3119 3122 3125 3127 3131 3133 3135 3138 3140 3141 3141 3141 3142 3142 3141 3142 3141 3141 3141 3140 3138 3140 3135 3135 3132 3131 3129 3127
3034 3038 3045 3046 3047 3054 3064 3073 3081 3088 3094 3100 3104 3108 3112 3116 3117 3121 3124 3125 3127 3129 3132 3135 3137 3138 3139 3139 3140 3139 3139 3138 3138 3138 3137 3137 3136 3133 3133 3131 3129 3128 3126 3123 3119
3042 3044 3049 3054 3055 3065 3073 3081 3088 3094 3099 3102 3106 3110 3113 3117 3119 3122 3125 3126 3128 3130 3132 3133 3135 3137 3137 3137 3137 3137 3137 3136 3136 3135 3133 3131 3134 3129 3126 3124 3123 3121 3118 3117 3115
3047 3052 3059 3062 3065 3075 3082 3087 3093 3097 3101 3104 3108 3112 3114 3117 3119 3122 3124 3126 3128 3130 3131 3132 3134 3135 3136 3135 3135 3135 3135 3134 3134 3131 3129 3129 3127 3125 3121 3119 3117 3115 3113 3111 3110
3057 3061 3069 3073 3079 3084 3090 3094 3098 3101 3104 3107 3111 3113 3116 3118 3121 3123 3125 3127 3129 3130 3131 3132 3133 3134 3135 3134 3134 3133 3132 3131 3131 3127 3126 3125 3122 3124 3120 3113 3112 3110 3109 3106 3103
3069 3072 3074 3078 3084 3091 3094 3097 3102 3106 3108 3110 3113 3118 3120 3121 3122 3124 3126 3128 3129 3130 3131 3132 3133 3133 3132 3132 3132 3131 3130 3129 3128 3125 3121 3120 3116 3116 3113 3109 3107 3105 3103 3099 3096
3079 3083 3085 3088 3091 3098 3102 3104 3110 3112 3111 3112 3116 3118 3120 3122 3124 3125 3126 3128 3130 3131 3131 3131 3133 3132 3131 3131 3130 3128 3128 3126 3125 3121 3117 3115 3110 3109 3107 3106 3104 3102 3099 3094 3092
3089 3091 3094 3097 3101 3105 3109 3110 3111 3114 3113 3115 3118 3122 3123 3124 3126 3126 3128 3130 3130 3130 3130 3132 3132 3131 3130 3129 3128 3127 3126 3124 3122 3120 3116 3110 3105 3104 3104 3103 3101 3098 3093 3089 3086
3098 3099 3101 3105 3108 3110 3113 3114 3115 3116 3117 3121 3123 3124 3126 3128 3127 3128 3130 3130 3130 3130 3131 3131 3132 3130 3129 3129 3128 3127 3125 3124 3122 3115 3111 3106 3102 3102 3102 3100 3097 3094 3091 3087 3084
3106 3108 3110 3112 3113 3115 3117 3117 3118 3119 3123 3128 3128 3129 3129 3129 3130 3130 3130 3132 3130 3130 3130 3131 3131 3130 3130 3129 3128 3126 3124 3121 3118 3115 3111 3108 3106 3100 3099 3097 3094 3090 3087 3085 3081
3115 3116 3116 3119 3118 3119 3121 3121 3121 3122 3127 3133 3130 3130 3130 3131 3132 3132 3131 3131 3130 3130 3132 3132 3130 3130 3130 3130 3127 3126 3122 3118 3115 3112 3110 3109 3108 3098 3097 3095 3092 3090 3087 3084 3080
3121 3122 3122 3122 3122 3123 3122 3122 3123 3126 3129 3133 3133 3132 3132 3131 3131 3131 3131 3132 3131 3131 3131 3131 3131 3130 3130 3129 3126 3124 3121 3116 3113 3111 3111 3108 3109 3096 3096 3094 3091 3088 3085 3081 3077
3126 3126 3125 3126 3125 3125 3124 3125 3125 3125 3133 3135 3134 3133 3133 3133 3133 3133 3132 3132 3132 3132 3131 3130 3129 3129 3128 3128 3126 3124 3119 3116 3116 3114 3111 3107 3106 3095 3094 3092 3090 3086 3083 3079 3074
3131 3130 3130 3128 3127 3125 3124 3125 3124 3129 3130 3132 3132 3133 3133 3133 3134 3133 3133 3133 3132 3131 3129 3128 3128 3127 3126 3126 3126 3123 3122 3123 3127 3122 3112 3106 3100 3094 3093 3091 3088 3084 3081 3078 3073
3132 3132 3131 3130 3129 3128 3128 3126 3129 3131 3132 3132 3133 3134 3134 3134 3135 3134 3133 3133 3132 3131 3131 3128 3126 3125 3124 3124 3125 3123 3123 3123 3121 3120 3117 3102 3095 3091 3089 3088 3085 3082 3080 3076 3072
3133 3133 3132 3131 3130 3129 3129 3128 3130 3131 3132 3133 3133 3134 3134 3133 3134 3133 3132 3132 3131 3131 3129 3128 3125 3123 3123 3122 3122 3122 3124 3122 3121 3123 3119 3100 3093 3087 3086 3085 3082 3080 3077 3074 3070
3135 3134 3133 3132 3131 3131 3131 3132 3132 3133 3134 3134 3134 3134 3134 3134 3133 3132 3133 3132 3131 3130 3128 3127 3126 3124 3122 3120 3120 3120 3120 3120 3120 3120 3119 3114 3088 3084 3082 3081 3079 3078 3075 3072 3069
3136 3136 3135 3134 3134 3132 3132 3132 3133 3133 3133 3134 3134 3134 3133 3133 3131 3131 3130 3130 3129 3129 3127 3126 3124 3121 3119 3117 3117 3117 3117 3117 3116 3116 3114 3112 3085 3079 3079 3078 3076 3074 3071 3068 3065
3137 3136 3136 3135 3135 3135 3134 3133 3133 3133 3132 3132 3132 3132 3131 3131 3132 3129 3128 3129 3127 3127 3126 3125 3123 3119 3115 3116 3114 3112 3111 3112 3112 3112 3107 3108 3081 3076 3075 3075 3073 3069 3067 3064 3061
3137 3136 3135 3134 3134 3133 3132 3132 3132 3132 3132 3132 3131 3130 3129 3129 3129 3128 3127 3126 3126 3125 3123 3122 3118 3117 3115 3112 3110 3107 3106 3106 3106 3103 3098 3080 3071 3070 3071 3069 3068 3065 3063 3059 3057
3136 3134 3133 3132 3132 3131 3131 3131 3131 3130 3130 3130 3129 3129 3128 3128 3126 3125 3124 3123 3123 3121 3120 3118 3113 3111 3108 3106 3103 3097 3094 3095 3092 3093 3091 3069 3068 3064 3066 3063 3062 3060 3058 3055 3053
3135 3134 3133 3131 3130 3130 3129 3128 3128 3127 3127 3127 3127 3125 3125 3125 3125 3124 3122 3121 3119 3117 3116 3114 3109 3105 3096 3096 3091 3083 3081 3080 3079 3079 3074 3069 3062 3065 3062 3059 3057 3055 3053 3051 3048
3133 3132 3131 3130 3129 3128 3128 3126 3125 3125 3124 3123 3123 3122 3121 3121 3119 3118 3117 3117 3116 3113 3111 3109 3106 3103 3091 3091 3087 3076 3070 3067 3070 3070 3070 3063 3060 3060 3059 3056 3054 3053 3050 3046 3044